Sauk Centre, MN

3:47 AM CDT on March 24, 2017 (GMT -0500)
Sauk Centre

Weather History for KD39 - February, 2014

Change the Weather History Date:

Friday, February 28, 2014

  Actual Average (KGHW) Record (KGHW)
Temperature  
Mean Temperature 2 °F -  
Max Temperature 12 °F 34 °F 52 °F (1985)
Min Temperature -9 °F 15 °F -33 °F (1962)
Degree Days  
Heating Degree Days 64    
Moisture  
Dew Point -9 °F    
Average Humidity 67    
Maximum Humidity 73    
Minimum Humidity 62    
Precipitation  
Precipitation 0.00 in - - ()
Sea Level Pressure  
Sea Level Pressure 29.92 in    
Wind  
Wind Speed 12 mph (SSW)    
Max Wind Speed 22 mph    
Max Gust Speed 29 mph    
Visibility 10 miles    
Events Snow    
Averages and records for this station are not official NWS values.
T = Trace of Precipitation, MM = Missing Value Source: NWS Daily Summary

Daily Weather History Graph

Daily Weather History Graph

Search for Another Location

Airport or City:

Trip Planner

Search our weather history database for the weather conditions in past years. The results will help you decide how hot, cold, wet, or windy it might be!

Date:

Astronomy

Feb. 28, 2014 Rise Set
Actual Time 6:59 AM CST 6:05 PM CST
Civil Twilight 6:30 AM CST 6:35 PM CST
Nautical Twilight 5:55 AM CST 7:09 PM CST
Astronomical Twilight 5:21 AM CST 7:44 PM CST
Moon 6:15 AM CST (2/28) 5:44 PM CST (2/28)
Length of Visible Light 12h 04m
Length of Day
11h 05m
Waning Crescent, 1% of the Moon is Illuminated
Feb 28
Waning Crescent
Mar 1
New
Mar 8
First Quarter
Mar 16
Full
Mar 23
Last Quarter

Hourly Weather History & Observations

Time (CST) Temp. Windchill Dew Point Humidity Pressure Visibility Wind Dir Wind Speed Gust Speed Precip Events Conditions
12:12 AM -7.6 °F -24.6 °F -17.3 °F 63% 29.95 in 10.0 mi SSE 9.2 mph - N/A   Overcast
12:32 AM -7.2 °F -24.2 °F -17.1 °F 62% 29.94 in 10.0 mi SE 9.2 mph - N/A   Overcast
12:52 AM -7.2 °F -27.9 °F -17.0 °F 63% 29.94 in 10.0 mi SSE 13.8 mph - N/A   Overcast
1:13 AM -7.6 °F -23.4 °F -17.0 °F 64% 29.92 in 10.0 mi SE 8.1 mph - N/A   Mostly Cloudy
1:32 AM -8.1 °F -27.3 °F -17.9 °F 63% 29.91 in 10.0 mi SE 11.5 mph - N/A   Scattered Clouds
1:52 AM -8.1 °F -26.3 °F -17.5 °F 64% 29.90 in 10.0 mi SE 10.4 mph - N/A   Clear
2:13 AM -8.5 °F -27.8 °F -18.4 °F 62% 29.90 in 10.0 mi SE 11.5 mph - N/A   Clear
2:32 AM -8.5 °F -25.7 °F -17.9 °F 64% 29.89 in 10.0 mi SE 9.2 mph - N/A   Clear
2:52 AM -8.5 °F -26.8 °F -16.8 °F 67% 29.89 in 10.0 mi SE 10.4 mph - N/A   Clear
3:13 AM -8.5 °F -26.8 °F -16.6 °F 68% 29.87 in 10.0 mi SE 10.4 mph - N/A   Clear
3:32 AM -8.5 °F -25.7 °F -16.2 °F 69% 29.87 in 10.0 mi SE 9.2 mph - N/A   Clear
3:53 AM -8.5 °F -26.8 °F -16.6 °F 68% 29.86 in 10.0 mi SE 10.4 mph - N/A   Clear
4:13 AM -8.9 °F -27.2 °F -17.5 °F 66% 29.84 in 10.0 mi SE 10.4 mph - N/A   Clear
4:32 AM -8.9 °F -26.2 °F -17.9 °F 65% 29.84 in 10.0 mi SE 9.2 mph - N/A   Clear
4:53 AM -8.9 °F -28.2 °F -18.4 °F 63% 29.83 in 10.0 mi SE 11.5 mph - N/A   Clear
5:13 AM -9.4 °F -28.9 °F -18.8 °F 64% 29.84 in 10.0 mi SE 11.5 mph - N/A   Clear
5:32 AM -9.6 °F -28.1 °F -19.3 °F 62% 29.83 in 10.0 mi SE 10.4 mph - N/A   Scattered Clouds
5:53 AM -8.9 °F -26.2 °F -18.8 °F 62% 29.83 in 10.0 mi ESE 9.2 mph - N/A   Overcast
6:13 AM -8.9 °F -28.2 °F -18.4 °F 63% 29.82 in 10.0 mi ESE 11.5 mph - N/A   Overcast
6:32 AM -8.7 °F -28.9 °F -18.4 °F 62% 29.82 in 10.0 mi ESE 12.7 mph - N/A   Overcast
6:53 AM -8.1 °F -26.3 °F -17.5 °F 64% 29.81 in 10.0 mi ESE 10.4 mph - N/A   Overcast
7:13 AM -7.6 °F -25.7 °F -16.6 °F 65% 29.81 in 10.0 mi ESE 10.4 mph - N/A   Overcast
7:32 AM -6.9 °F -24.8 °F -15.9 °F 65% 29.81 in 10.0 mi SE 10.4 mph - N/A   Overcast
7:53 AM -6.2 °F -23.9 °F -15.2 °F 65% 29.82 in 10.0 mi SE 10.4 mph - N/A   Overcast
8:12 AM -5.4 °F -20.8 °F -14.8 °F 64% 29.83 in 10.0 mi SE 8.1 mph - N/A   Overcast
8:32 AM -4.9 °F -21.3 °F -13.7 °F 66% 29.83 in 10.0 mi SSE 9.2 mph - N/A   Overcast
8:53 AM -3.8 °F -21.0 °F -12.1 °F 68% 29.83 in 10.0 mi SSE 10.4 mph - N/A   Overcast
9:12 AM -3.1 °F -21.8 °F -11.4 °F 68% 29.82 in 10.0 mi SSE 12.7 mph - N/A   Overcast
9:32 AM -2.6 °F -20.3 °F -11.0 °F 67% 29.81 in 10.0 mi SSE 11.5 mph - N/A   Scattered Clouds
9:53 AM -1.7 °F -19.2 °F -10.3 °F 67% 29.81 in 10.0 mi SSE 11.5 mph - N/A   Clear
10:12 AM -0.6 °F -16.0 °F -8.5 °F 69% 29.82 in 10.0 mi SSE 9.2 mph - N/A   Clear
10:32 AM 1.0 °F -15.8 °F -6.9 °F 69% 29.82 in 10.0 mi SSE 11.5 mph - N/A   Clear
10:53 AM 2.3 °F -13.4 °F -6.3 °F 67% 29.82 in 10.0 mi SSE 10.4 mph - N/A   Clear
11:12 AM 3.0 °F -11.5 °F -5.8 °F 67% 29.82 in 10.0 mi South 9.2 mph - N/A   Clear
11:32 AM 4.1 °F -12.0 °F -4.5 °F 67% 29.83 in 10.0 mi South 11.5 mph - N/A   Clear
11:53 AM 6.1 °F -8.7 °F -2.9 °F 67% 29.83 in 10.0 mi South 10.4 mph - N/A   Clear
12:12 PM 6.3 °F -7.5 °F -2.9 °F 66% 29.83 in 10.0 mi South 9.2 mph - N/A   Clear
12:32 PM 6.4 °F -7.3 °F -2.0 °F 68% 29.84 in 10.0 mi SSW 9.2 mph - N/A   Mostly Cloudy
12:53 PM 7.3 °F -7.1 °F -0.9 °F 69% 29.84 in 10.0 mi SW 10.4 mph - N/A   Overcast
1:12 PM 8.2 °F -3.0 °F -0.0 °F 69% 29.84 in 10.0 mi SW 6.9 mph - N/A   Overcast
1:32 PM 9.9 °F -3.1 °F 1.6 °F 69% 29.84 in 10.0 mi SW 9.2 mph - N/A   Overcast
1:53 PM 11.3 °F -3.6 °F 2.3 °F 67% 29.85 in 10.0 mi West 12.7 mph - N/A Snow Light Snow
2:12 PM 11.7 °F -3.8 °F 2.5 °F 67% 29.86 in 10.0 mi West 13.8 mph 18.4 mph N/A   Mostly Cloudy
2:32 PM 11.3 °F -2.9 °F 2.3 °F 67% 29.86 in 10.0 mi WNW 11.5 mph 17.3 mph N/A   Scattered Clouds
2:53 PM 11.5 °F -1.9 °F 2.8 °F 68% 29.86 in 10.0 mi WNW 10.4 mph - N/A   Clear
3:12 PM 12.0 °F -2.0 °F 2.8 °F 67% 29.87 in 10.0 mi WNW 11.5 mph - N/A   Clear
3:32 PM 11.8 °F -2.3 °F 3.2 °F 68% 29.88 in 10.0 mi WNW 11.5 mph - N/A   Scattered Clouds
3:53 PM 12.2 °F -1.0 °F 3.6 °F 68% 29.89 in 10.0 mi WNW 10.4 mph - N/A   Mostly Cloudy
4:12 PM 12.0 °F -3.4 °F 3.7 °F 69% 29.91 in 10.0 mi NW 13.8 mph 18.4 mph N/A   Overcast
4:32 PM 12.0 °F -4.5 °F 3.7 °F 69% 29.91 in 10.0 mi WNW 16.1 mph - N/A   Overcast
4:53 PM 11.1 °F -5.1 °F 2.1 °F 67% 29.92 in 10.0 mi NW 15.0 mph 19.6 mph N/A   Mostly Cloudy
5:12 PM 10.2 °F -6.3 °F 2.1 °F 70% 29.94 in 10.0 mi NW 15.0 mph - N/A   Clear
5:32 PM 9.5 °F -8.8 °F 1.4 °F 70% 29.95 in 10.0 mi NW 18.4 mph - N/A   Scattered Clouds
5:53 PM 8.6 °F -10.0 °F -0.0 °F 68% 29.97 in 10.0 mi NW 18.4 mph 25.3 mph N/A   Clear
6:12 PM 7.5 °F -11.4 °F -1.3 °F 67% 29.98 in 10.0 mi NW 18.4 mph 24.2 mph N/A   Scattered Clouds
6:33 PM 6.1 °F -12.2 °F -2.2 °F 69% 30.00 in 10.0 mi NW 16.1 mph 21.9 mph N/A   Mostly Cloudy
6:53 PM 5.5 °F -15.0 °F -3.1 °F 68% 30.02 in 10.0 mi NW 20.7 mph 25.3 mph N/A   Overcast
7:12 PM 4.1 °F -16.9 °F -4.7 °F 67% 30.03 in 10.0 mi NW 20.7 mph 24.2 mph N/A   Overcast
7:33 PM 3.4 °F -18.3 °F -5.4 °F 67% 30.03 in 10.0 mi NW 21.9 mph 28.8 mph N/A   Overcast
7:53 PM 2.3 °F -17.7 °F -6.2 °F 68% 30.05 in 10.0 mi NW 17.3 mph - N/A   Scattered Clouds
8:12 PM 1.0 °F -19.9 °F -7.2 °F 68% 30.05 in 10.0 mi NW 18.4 mph - N/A   Clear
8:33 PM -0.4 °F -19.9 °F -8.5 °F 69% 30.06 in 10.0 mi NNW 15.0 mph - N/A   Clear
8:53 PM -0.9 °F -18.3 °F -8.5 °F 70% 30.08 in 10.0 mi NW 11.5 mph - N/A   Clear
9:12 PM -2.0 °F -23.9 °F -9.4 °F 71% 30.10 in 10.0 mi NW 18.4 mph - N/A   Clear
9:33 PM -3.1 °F -24.7 °F -10.3 °F 71% 30.11 in 10.0 mi NW 17.3 mph 20.7 mph N/A   Clear
9:52 PM -4.0 °F -25.8 °F -11.2 °F 71% 30.14 in 10.0 mi NW 17.3 mph 23.0 mph N/A   Clear
10:12 PM -4.4 °F -26.3 °F -11.2 °F 72% 30.16 in 10.0 mi NW 17.3 mph - N/A   Clear
10:33 PM -4.9 °F -26.3 °F -11.7 °F 72% 30.18 in 10.0 mi NW 16.1 mph 21.9 mph N/A   Clear
10:52 PM -5.3 °F -25.4 °F -12.1 °F 72% 30.19 in 10.0 mi NW 13.8 mph 20.7 mph N/A   Clear
11:12 PM -5.8 °F -26.8 °F -12.5 °F 73% 30.19 in 10.0 mi NW 15.0 mph 20.7 mph N/A   Clear
11:33 PM -6.2 °F -27.3 °F -13.0 °F 72% 30.20 in 10.0 mi NW 15.0 mph - N/A   Clear
11:52 PM -6.3 °F -27.5 °F -13.0 °F 73% 30.21 in 10.0 mi NW 15.0 mph - N/A   Clear